User: anonymous   Login
Location: Newark
(40.7360°N, 74.1730°W)
Time: 20:06:22
(UTC-04:00)
Language:

ISS - Orbit

View from above orbital plane
View from above orbital plane
View from above satellite
View from above satellite

Ground track
Ground track

The orbit data is extracted from the following two-line orbital elements,

1 25544U 98067A   17174.53062682  .00016717  00000-0  10270-3 0  9043
2 25544  51.6394   6.7154 0005119 312.9129  47.1593 15.54082155 22735
Epoch (UTC): 23 June 2017 12:44:06
Eccentricity: 0.0005119
inclination: 51.6394°
perigee height: 401 km
apogee height: 408 km
right ascension of ascending node: 6.7154°
argument of perigee: 312.9129°
revolutions per day: 15.54082155
mean anomaly at epoch: 47.1593°
orbit number at epoch: 2273

The dashed part of the orbit path shows where the satellite is in the earth's shadow,  

DLR